Hourly Weather Roundup
Issued by NWS Central Illinois

Home | Current Version | Previous Version | Text Only | Print | Product List | Glossary On
Versions: 1 2 3 4 5 6 7 8 9 10 11 12 13 14 15 16 17 18 19 20 21 22 23 24 25 26 27 28 29 30 31 32 33 34 35 36 37 38 39 40 41 42 43 44 45 46 47 48 49 50
000
NZUS43 KILX 290710
HWRILX

Area Weather Roundup
National Weather Service Lincoln IL
200 AM CDT THU JUN 29 2017

NOTE:  "FAIR" indicates few or no clouds below 12,000 feet, with
       no sigificant weather and/or obstructions to visibility.


CITY           SKY/WX    TMP DP  RH WIND       PRES   REMARKS
Bloomington    MOCLDY    75  65  70 SW22G31   29.85F
Champaign      MOCLDY    74  63  68 S15G24    29.91S
Danville       MOCLDY    73  63  72 SW16G28   29.88S
Decatur        CLOUDY    75  64  68 SW17G23   29.91S
Effingham      CLOUDY    73  65  78 S8        29.96S
Flora          CLOUDY    73  66  77 S8        29.96S
Galesburg      MOCLDY    68  60  76 S15G26    29.75R
Jacksonville   CLOUDY    72  59  64 W8        29.93S
Lacon          CLOUDY    75  62  63 SW33G49   29.70F
Lawrenceville  CLOUDY    69  64  84 S9        29.97F
Litchfield     CLOUDY    71  65  82 S6        29.95S
$$


CITY           SKY/WX    TMP DP  RH WIND       PRES   REMARKS
Lincoln        CLOUDY    77  67  69 SW7G17    29.88S
Macomb         CLOUDY    65  63  91 S24G33    29.79F
Mattoon        CLOUDY    73  66  78 SW8       29.93S
Mt Carmel AP   PTCLDY    72  63  74 S8        29.97F
Olney-Noble AP MOCLDY    71  70  97 S6        29.96F
Paris AP       CLOUDY    73  64  75 S12G18    29.94S THUNDER
Peoria         LGT RAIN  70  67  90 SW20G26   29.83F
Pontiac        CLOUDY    79  66  64 S38G61    29.72F HX  81
Rantoul        MOCLDY    76  65  69 SW16      29.88S
Robinson       CLOUDY    69  63  82 S6        29.97S
Springfield    CLOUDY    77  66  68 W10       29.92R
Taylorville    CLOUDY    74  65  71 S15       29.92F
$$

...REGIONAL REPORTS...


CITY           SKY/WX    TMP DP  RH WIND       PRES   REMARKS
Chicago O`Hare MOCLDY    67  64  90 S8        29.77F
Kankakee       CLOUDY    75  63  64 S24G35    29.78F
Moline         MOCLDY    75  58  55 SW10      29.73R
Mount Sterling TSTM      65  63  94 S9        29.89F
Mount Vernon   PTCLDY    70  65  84 S6        29.96F
Pittsfield     CLOUDY    71  62  72 CALM      29.96S
Quincy         TSTM      66  63  90 S13       29.90F
Rockford       CLOUDY    70  65  84 S8        29.74F
$$


CITY           SKY/WX    TMP DP  RH WIND       PRES   REMARKS
Burlington     MOCLDY    72  60  66 W6G20     29.77R
Cedar Rapids   CLOUDY    69  65  86 SW13      29.71R
Des Moines     CLOUDY    68  66  93 S5        29.72R
Kirksville     CLOUDY    65  63  93 S20G29    29.82F THUNDER
Ottumwa        CLOUDY    69  64  84 SW16G30   29.76R
St Louis       MOCLDY    78  64  61 S7        29.95R HX  80
$$


CITY           SKY/WX    TMP DP  RH WIND       PRES   REMARKS
Terre Haute    CLOUDY    73  60  63 S13       29.94F
Evansville     CLOUDY    73  62  68 S6        29.99F
Indianapolis   CLOUDY    69  57  65 S12       29.95F
Lafayette      CLOUDY    72  61  68 SW8G17    29.90S
Madison        CLOUDY    66  64  93 S14       29.64F
Milwaukee      TSTM      67  64  90 S16G29    29.73F
$$






USA.gov is the U.S. government's official web portal to all federal, state and local government web resources and services.